Location: LewisvilleTX
(33.0462°N, 96.9942°W)
Time: 04:56:41
(UTC+00:00)

N. Korean satellite - Pass Details

Date: 05 December 2021
Orbit: 447 x 491 km, 97.3° (Epoch: 22 January)

Event Time Altitude Azimuth Distance (km) Brightness Sun altitude
Rises 12:13:04 0° 356° (N) 2,452 9.9 -13.1°
Reaches altitude 10° 12:15:20 10° 343° (NNW) 1,575 8.8 -12.7°
Maximum altitude 12:18:07 24° 287° (WNW) 956 7.4 -12.1°
Drops below altitude 10° 12:20:54 10° 231° (SW) 1,569 8.8 -11.6°
Sets 12:23:09 0° 217° (SW) 2,439 9.9 -11.1°
